Location: Canyon Rim
(40.8777°N, 111.8641°W)
Time: 00:18:14
(UTC+00:00)

X-37B - Visible Passes

Search period start: 20 April 2021 00:00
Search period end: 30 April 2021 00:00
Orbit: 380 x 394 km, 45.0° (Epoch: 07 April)

Date Brightness Start Highest point End Pass type
(mag) Time Alt. Az. Time Alt. Az. Time Alt. Az.
20 Apr 1.3 10:38:12 50° N 10:38:12 50° N 10:41:02 10° ENE visible
20 Apr 1.9 12:11:52 10° WNW 12:14:54 37° N 12:17:53 10° ENE visible
21 Apr 3.8 09:42:15 13° ENE 09:42:15 13° ENE 09:42:41 10° ENE visible
21 Apr 1.9 11:14:31 19° WNW 11:16:23 37° N 11:19:23 10° ENE visible
22 Apr 2.2 10:18:35 35° NNE 10:18:35 35° NNE 10:20:57 10° ENE visible
22 Apr 1.7 11:51:49 10° WNW 11:54:53 43° N 11:57:57 10° E visible
23 Apr 1.9 10:54:57 23° NW 10:56:24 37° N 10:59:25 10° ENE visible
24 Apr 2.9 09:59:07 26° NE 09:59:07 26° NE 10:00:55 10° ENE visible
24 Apr 1.2 11:31:42 10° WNW 11:34:52 57° NNE 11:38:00 10° E visible
25 Apr 1.7 10:35:40 36° NNW 10:36:25 43° N 10:39:29 10° E visible
26 Apr 3.5 09:40:05 16° ENE 09:40:05 16° ENE 09:40:57 10° ENE visible
26 Apr 0.5 11:12:23 17° WNW 11:14:47 87° NNE 11:17:58 10° ESE visible
27 Apr 1.6 10:17:01 46° ENE 10:17:01 46° ENE 10:19:32 10° E visible
27 Apr 1.5 11:50:03 10° W 11:52:54 30° SSW 11:55:44 10° SSE visible
28 Apr 0.6 10:54:18 51° SW 10:54:38 54° SSW 10:57:45 10° SE visible
29 Apr 2.2 11:32:02 16° SW 11:32:36 17° SW 11:34:45 10° S visible
